Content
SEND FEEDBACK

Daily
Averages
Monthly
Summary
United States of America

WENATCHEE, WASHINGTON


Home > North America > United States > Washington
Elevation: 1245 feet     Latitude: 47 23N     Longitude: 120 12W

WEATHER
 
SELECT A DAY
Number of Records: 246,770;   Date Range: 1/1/95 - 10/22/14
 
SHARE

PRINT THIS DATA

[ ← Previous Day ]
WEATHER ALMANAC - JANUARY 3, 2013
[ Next Day → ]
[ °C ]   °F
Weather ElementAverageHighLow
Temperature23.9 °F25 °F (12:55 pm)23 °F (4:55 am)
Dewpoint17.6 °F19 °F (1:55 am)16 °F (8:55 am)
Humidity76.9 %81 % (1:55 am)72 % (12:55 pm)
Barometer30.44 in30.53 in (1:55 am)30.39 in (6:55 pm)
Wind Speed1.3 mph5.8 mph (11:55 am)
Weather ElementAverage
Visibility9.9 mi
Wind DirectionENE (80.9 °)

Weather ElementTotal
Precipitation---
Heating Degree Days41 (Base 65)
Averaged from 23 records on January 3, 2013
WEATHER CONDITIONS BREAKOUT
WIND DIRECTION BREAKOUT
WEATHER BY HOUR - JANUARY 3, 2013
[ °C ]   °F
Local TimeTemperatureDewpointHumidityBarometerVisibilityWind DirectionWind SpeedGust SpeedPrecipitationEventsConditions
1:55 AM24.1 °F19.0 °F81 %30.53 in10.0 miCalmOvercast
2:55 AM24.1 °F18.0 °F77 %30.52 in10.0 miWNW (290°)3.5 mphOvercast
3:55 AM24.1 °F18.0 °F77 %30.51 in10.0 miCalmOvercast
4:55 AM23.0 °F18.0 °F81 %30.49 in10.0 miCalmOvercast
5:55 AM23.0 °F17.1 °F78 %30.48 in10.0 miCalmOvercast
6:55 AM23.0 °F17.1 °F78 %30.48 in7.0 miWSW (250°)3.5 mph0.00 inSnowLight Snow
7:55 AM23.0 °F17.1 °F78 %30.48 in10.0 miCalm0.00 inOvercast
8:55 AM23.0 °F16.0 °F74 %30.48 in10.0 miWest (270°)4.6 mphOvercast
9:55 AM23.0 °F17.1 °F78 %30.49 in10.0 miCalmOvercast
10:55 AM24.1 °F17.1 °F75 %30.48 in10.0 miWNW (300°)3.5 mphOvercast
11:55 AM24.1 °F17.1 °F75 %30.44 in10.0 miSW (230°)5.8 mphOvercast
12:55 PM25.0 °F17.1 °F72 %30.43 in10.0 miSW (230°)3.5 mphOvercast
1:55 PM25.0 °F17.1 °F72 %30.40 in10.0 miCalmOvercast
2:55 PM25.0 °F17.1 °F72 %30.40 in10.0 miWNW (290°)5.8 mphOvercast
3:55 PM25.0 °F17.1 °F72 %30.41 in10.0 miCalmOvercast
4:55 PM24.1 °F18.0 °F77 %30.41 in10.0 miCalmOvercast
5:55 PM24.1 °F19.0 °F81 %30.40 in10.0 miCalmOvercast
6:55 PM23.0 °F18.0 °F81 %30.39 in10.0 miCalmOvercast
7:55 PM24.1 °F18.0 °F77 %30.40 in10.0 miCalmOvercast
8:55 PM24.1 °F18.0 °F77 %30.40 in10.0 miCalmOvercast
9:55 PM24.1 °F18.0 °F77 %30.40 in10.0 miCalmOvercast
10:55 PM23.0 °F18.0 °F81 %30.40 in10.0 miCalmOvercast
11:55 PM24.1 °F18.0 °F77 %30.41 in10.0 miCalmOvercast
Hourly data recorded from KEAT, located miles away from Wenatchee, Washington







STORIES FROM OUR PARTNERS